Wetterdaten: aktuell Donnerstag, 16.08.2018 08:30
Datum Zeit Wetterhtte Helligkeit Boden -10cm Boden 5cm Temp S Luftfeuchte Luftdruck Regen Wind Richtung Richtung Sonnenschein UV Taupunkt Windchill Windben
16.08.2018 08:30 14,6 C 33,2 C 17,6 C 14,8 C 17,2 C 81 % 1019,7 hPa 0,0 l/m 3,7 km/h S-SO 161 5 min 0,3 UV-I 11,4 C 14,6 C 0,0 km/h
16.08.2018 08:25 14,4 C 32,5 C 17,6 C 14,6 C 16,5 C 81 % 1020,0 hPa 0,0 l/m 5,0 km/h S 184 5 min 0,3 UV-I 11,2 C 14,4 C 6,4 km/h
16.08.2018 08:20 14,4 C 31,9 C 17,6 C 14,5 C 15,8 C 81 % 1020,0 hPa 0,0 l/m 5,0 km/h S-SO 161 5 min 0,2 UV-I 11,2 C 14,4 C 11,2 km/h
16.08.2018 08:15 14,1 C 30,6 C 17,7 C 14,3 C 15,5 C 82 % 1020,0 hPa 0,0 l/m 4,2 km/h SO 139 5 min 0,2 UV-I 11,1 C 14,1 C 5,6 km/h
16.08.2018 08:10 14,0 C 30,1 C 17,7 C 14,2 C 15,2 C 82 % 1020,0 hPa 0,0 l/m 3,7 km/h O-SO 116 5 min 0,2 UV-I 11,0 C 14,0 C 4,8 km/h
16.08.2018 08:05 13,7 C 29,1 C 17,7 C 14,0 C 14,6 C 83 % 1019,8 hPa 0,0 l/m 4,8 km/h S-SO 161 5 min 0,2 UV-I 10,9 C 13,7 C 5,6 km/h
16.08.2018 08:00 13,6 C 28,3 C 17,7 C 13,9 C 14,1 C 82 % 1019,8 hPa 0,0 l/m 5,0 km/h S-SO 161 5 min 0,2 UV-I 10,6 C 13,6 C 9,8 km/h
16.08.2018 07:55 13,5 C 26,7 C 17,7 C 13,7 C 13,5 C 83 % 1019,8 hPa 0,0 l/m 4,0 km/h S-SO 161 5 min 0,1 UV-I 10,7 C 13,5 C 6,9 km/h
16.08.2018 07:50 13,3 C 25,8 C 17,7 C 13,5 C 13,2 C 83 % 1019,8 hPa 0,0 l/m 3,5 km/h S-SO 161 5 min 0,1 UV-I 10,5 C 13,3 C 5,8 km/h
16.08.2018 07:45 13,1 C 25,4 C 17,8 C 13,3 C 12,3 C 83 % 1020,1 hPa 0,0 l/m 3,5 km/h S-SO 161 5 min 0,1 UV-I 10,3 C 13,1 C 5,6 km/h
16.08.2018 07:40 13,1 C 24,8 C 17,8 C 13,3 C 11,7 C 83 % 1020,1 hPa 0,0 l/m 3,5 km/h SO 139 5 min 0,0 UV-I 10,3 C 13,1 C 4,5 km/h
16.08.2018 07:35 12,9 C 14,2 C 17,8 C 13,3 C 10,4 C 83 % 1020,1 hPa 0,0 l/m 3,7 km/h S-SO 161 5 min 0,0 UV-I 10,1 C 12,9 C 5,0 km/h
16.08.2018 07:30 12,9 C -8,8 C 17,8 C 13,1 C 10,1 C 82 % 1020,1 hPa 0,0 l/m 3,5 km/h SO 139 0 min 0,0 UV-I 9,9 C 12,9 C 8,2 km/h
16.08.2018 07:25 12,8 C -9,4 C 17,9 C 13,1 C 9,9 C 82 % 1019,6 hPa 0,0 l/m 3,5 km/h S-SO 161 0 min 0,0 UV-I 9,8 C 12,8 C 4,5 km/h
16.08.2018 07:20 12,8 C -9,7 C 17,9 C 13,1 C 9,8 C 82 % 1019,6 hPa 0,0 l/m 3,7 km/h S-SW 206 0 min 0,0 UV-I 9,8 C 12,8 C 3,2 km/h
16.08.2018 07:15 12,8 C -10,2 C 17,9 C 13,0 C 9,7 C 82 % 1019,6 hPa 0,0 l/m 4,2 km/h S-SO 161 0 min 0,0 UV-I 9,8 C 12,8 C 5,6 km/h
16.08.2018 07:10 12,8 C -10,6 C 17,9 C 13,1 C 9,8 C 82 % 1019,6 hPa 0,0 l/m 3,7 km/h S 184 0 min 0,0 UV-I 9,8 C 12,8 C 8,0 km/h
16.08.2018 07:05 12,8 C -11,1 C 17,9 C 13,0 C 9,7 C 82 % 1020,2 hPa 0,0 l/m 2,9 km/h W 274 0 min 0,0 UV-I 9,8 C 12,8 C 6,9 km/h
16.08.2018 07:00 12,9 C -11,5 C 17,9 C 13,0 C 9,6 C 82 % 1020,2 hPa 0,0 l/m 2,1 km/h S 184 0 min 0,0 UV-I 9,9 C 12,9 C 5,6 km/h
16.08.2018 06:55 12,9 C -11,8 C 18,0 C 13,0 C 9,6 C 82 % 1020,2 hPa 0,0 l/m 0,8 km/h S 184 0 min 0,0 UV-I 9,9 C 12,9 C 4,0 km/h
16.08.2018 06:50 12,7 C -12,0 C 18,0 C 13,0 C 9,6 C 82 % 1020,2 hPa 0,0 l/m 0,5 km/h S-SW 206 0 min 0,0 UV-I 9,7 C 12,7 C 0,0 km/h
16.08.2018 06:45 12,7 C -12,7 C 18,0 C 13,0 C 9,5 C 82 % 1020,2 hPa 0,0 l/m 0,8 km/h SO 139 0 min 0,0 UV-I 9,7 C 12,7 C 2,7 km/h
16.08.2018 06:40 12,6 C -13,1 C 18,0 C 13,0 C 9,4 C 82 % 1020,2 hPa 0,0 l/m 1,9 km/h SO 139 0 min 0,0 UV-I 9,6 C 12,6 C 0,0 km/h
16.08.2018 06:35 12,7 C -14,0 C 18,1 C 13,0 C 9,3 C 82 % 1020,2 hPa 0,0 l/m 2,9 km/h SO 139 0 min 0,0 UV-I 9,7 C 12,7 C 0,0 km/h
16.08.2018 06:30 12,7 C -14,5 C 18,1 C 13,1 C 9,2 C 82 % 1020,2 hPa 0,0 l/m 3,2 km/h S 184 0 min 0,0 UV-I 9,7 C 12,7 C 5,3 km/h
16.08.2018 06:25 12,8 C -15,6 C 18,1 C 13,0 C 9,2 C 82 % 1020,1 hPa 0,0 l/m 2,9 km/h S-SW 206 0 min 0,0 UV-I 9,8 C 12,8 C 5,6 km/h
16.08.2018 06:20 12,8 C -17,0 C 18,1 C 13,1 C 9,2 C 82 % 1020,1 hPa 0,0 l/m 3,2 km/h S 184 0 min 0,0 UV-I 9,8 C 12,8 C 2,7 km/h
16.08.2018 06:15 12,9 C -18,4 C 18,2 C 13,1 C 9,2 C 82 % 1020,1 hPa 0,0 l/m 2,1 km/h S 184 0 min 0,0 UV-I 9,9 C 12,9 C 5,3 km/h
16.08.2018 06:10 12,8 C -19,2 C 18,2 C 13,3 C 9,2 C 82 % 1020,1 hPa 0,0 l/m 0,3 km/h S-SO 161 0 min 0,0 UV-I 9,8 C 12,8 C 4,0 km/h
16.08.2018 06:05 12,9 C -20,5 C 18,2 C 13,3 C 9,3 C 81 % 1020,2 hPa 0,0 l/m 0,0 km/h O 94 0 min 0,0 UV-I 9,7 C 12,9 C 0,0 km/h
16.08.2018 06:00 13,1 C -21,3 C 18,2 C 13,3 C 9,3 C 82 % 1020,2 hPa 0,0 l/m 0,0 km/h N-NW 341 0 min 0,0 UV-I 10,1 C 13,1 C 0,0 km/h
16.08.2018 05:55 12,9 C -22,0 C 18,2 C 13,3 C 9,6 C 81 % 1020,2 hPa 0,0 l/m 1,6 km/h S 184 0 min 0,0 UV-I 9,7 C 12,9 C 0,0 km/h
16.08.2018 05:50 13,1 C -22,3 C 18,2 C 13,4 C 9,6 C 81 % 1020,2 hPa 0,0 l/m 3,5 km/h S 184 0 min 0,0 UV-I 9,9 C 13,1 C 0,0 km/h
16.08.2018 05:45 13,1 C -22,3 C 18,3 C 13,4 C 9,6 C 81 % 1020,6 hPa 0,0 l/m 4,5 km/h S-SO 161 0 min 0,0 UV-I 9,9 C 13,1 C 5,0 km/h
16.08.2018 05:40 13,2 C -22,5 C 18,3 C 13,4 C 9,6 C 81 % 1020,6 hPa 0,0 l/m 4,5 km/h S 184 0 min 0,0 UV-I 10,0 C 13,2 C 7,4 km/h
16.08.2018 05:35 13,3 C -22,5 C 18,3 C 13,5 C 9,8 C 81 % 1020,6 hPa 0,0 l/m 3,2 km/h S 184 0 min 0,0 UV-I 10,1 C 13,3 C 6,1 km/h
16.08.2018 05:30 13,3 C -22,5 C 18,3 C 13,4 C 9,7 C 80 % 1020,6 hPa 0,0 l/m 1,6 km/h S 184 0 min 0,0 UV-I 9,9 C 13,3 C 6,4 km/h
16.08.2018 05:25 13,2 C -22,5 C 18,4 C 13,5 C 9,8 C 81 % 1020,2 hPa 0,0 l/m 0,3 km/h S 184 0 min 0,0 UV-I 10,0 C 13,2 C 3,2 km/h
16.08.2018 05:20 13,3 C -22,5 C 18,4 C 13,5 C 9,7 C 80 % 1020,2 hPa 0,0 l/m 0,0 km/h O-NO 71 0 min 0,0 UV-I 9,9 C 13,3 C 0,0 km/h
16.08.2018 05:15 13,4 C -22,5 C 18,4 C 13,5 C 9,7 C 80 % 1020,2 hPa 0,0 l/m 1,1 km/h S 184 0 min 0,0 UV-I 10,0 C 13,4 C 0,0 km/h
16.08.2018 05:10 13,3 C -22,5 C 18,4 C 13,5 C 9,8 C 80 % 1020,2 hPa 0,0 l/m 1,9 km/h S 184 0 min 0,0 UV-I 9,9 C 13,3 C 0,0 km/h
_ Min-Zeit 06:40 04:12 08:30 07:15 06:30 00:02 07:25 - 06:05 - - - 07:40 06:40 06:40 08:30
Minimum _ 12,6 C -22,6 C 17,6 C 13,0 C 9,2 C 69 % 1019,6 hPa - 0,0 km/h - - - 0,0 UV-I 9,6 C 12,6 C 0,0 km/h
_ Max-Zeit 00:07 08:30 00:17 00:02 08:30 08:05 01:22 08:30 08:25 - - 08:30 08:30 00:07 00:07 08:20
Maximum _ 17,1 C 33,2 C 19,7 C 16,9 C 17,2 C 83 % 1021,1 hPa 0,0 l/m 5,0 km/h
S
- - 5 min 0,3 UV-I 11,6 C 17,1 C 11,2 km/h
S-SO
Durchschnitt _ 14,3 C -15,0 C 18,7 C 14,4 C 11,2 C 78 % 1020,4 hPa #0,0 l/m 1,5 km/h S-SO - #1:00 h 0,2 UV-I 10,5 C 14,3 C 2,3 km/h